Weather History for Bastrop, LA

Change the Weather History Date:

Wednesday, May 15, 2013

  Actual Average (KMLU) Record (KMLU)
Temperature  
Mean Temperature 72 °F 74 °F  
Max Temperature 85 °F 85 °F 94 °F (1963)
Min Temperature 60 °F 63 °F 50 °F (1931)
Degree Days  
Heating Degree Days 0 0  
Month to date heating degree days 3  
Since 1 July heating degree days 2227  
Cooling Degree Days 8 9  
Month to date cooling degree days 111  
Year to date cooling degree days 258  
Growing Degree Days 22 (Base 50)    
Moisture  
Dew Point 59 °F    
Average Humidity 63    
Maximum Humidity 91    
Minimum Humidity 39    
Precipitation  
Precipitation 0.02 in 0.17 in 4.05 in (1983)
Month to date precipitation 2.57  
Year to date precipitation 21.43  
Snow  
Snow 0.00 in - - ()
Month to date snowfall  
Since 1 July snowfall  
Snow Depth -    
Sea Level Pressure  
Sea Level Pressure 30.09 in    
Wind  
Wind Speed 4 mph (South)    
Max Wind Speed 13 mph    
Max Gust Speed 18 mph    
Visibility 10 miles    
Events Rain    
T = Trace of Precipitation, MM = Missing Value Source: NWS Daily Summary

Daily Weather History Graph

Daily Weather History Graph

Search for Another Location

Airport:

Trip Planner

Search our weather history database for the weather conditions in past years. The results will help you decide how hot, cold, wet, or windy it might be!

Date:

Astronomy

May. 15, 2013 Rise Set
Actual Time 6:08 AM CDT 7:59 PM CDT
Civil Twilight 5:41 AM CDT 8:26 PM CDT
Nautical Twilight 5:08 AM CDT 8:59 PM CDT
Astronomical Twilight 4:33 AM CDT 9:34 PM CDT
Moon 10:41 AM CDT (5/15) No Moon Set
Length of Visible Light 14h 45m
Length of Day
13h 51m
Waxing Crescent, 27% of the Moon is Illuminated
May 15
Waxing Crescent
May 17
First Quarter
May 24
Full
May 31
Last Quarter
Jun 8
New

Hourly Weather History & Observations

Time (CDT) Temp. Heat Index Dew Point Humidity Pressure Visibility Wind Dir Wind Speed Gust Speed Precip Events Conditions
12:15 AM 71.8 °F - 53.1 °F 52% 30.14 in 10.0 mi SSW 6.9 mph - N/A   Clear
12:35 AM 70.7 °F - 52.7 °F 53% 30.14 in 10.0 mi SSW 8.1 mph - N/A   Clear
12:55 AM 69.8 °F - 52.7 °F 54% 30.14 in 10.0 mi SSW 6.9 mph - N/A   Clear
1:35 AM 68.4 °F - 52.0 °F 56% 30.15 in 10.0 mi Calm Calm - N/A   Clear
1:55 AM 67.3 °F - 52.2 °F 58% 30.15 in 10.0 mi Calm Calm - N/A   Clear
2:15 AM 67.3 °F - 52.2 °F 58% 30.14 in 10.0 mi SSW 3.5 mph - N/A   Clear
2:35 AM 66.7 °F - 52.0 °F 59% 30.14 in 10.0 mi Calm Calm - N/A   Clear
2:55 AM 66.2 °F - 52.0 °F 60% 30.14 in 10.0 mi Calm Calm - N/A   Clear
3:15 AM 65.7 °F - 52.5 °F 62% 30.13 in 10.0 mi Calm Calm - N/A   Clear
3:35 AM 65.7 °F - 53.2 °F 64% 30.13 in 10.0 mi Calm Calm - N/A   Clear
3:55 AM 66.0 °F - 54.5 °F 66% 30.14 in 10.0 mi Calm Calm - N/A   Clear
4:15 AM 65.3 °F - 55.2 °F 70% 30.14 in 10.0 mi Calm Calm - N/A   Clear
4:35 AM 64.6 °F - 55.6 °F 73% 30.14 in 10.0 mi Calm Calm - N/A   Clear
4:55 AM 63.5 °F - 55.8 °F 76% 30.15 in 10.0 mi Calm Calm - N/A   Clear
5:15 AM 63.5 °F - 56.3 °F 77% 30.15 in 10.0 mi Calm Calm - N/A   Clear
5:35 AM 62.6 °F - 56.3 °F 80% 30.15 in 10.0 mi Calm Calm - N/A   Clear
5:55 AM 61.7 °F - 56.1 °F 82% 30.15 in 10.0 mi Calm Calm - N/A   Clear
6:15 AM 61.0 °F - 56.3 °F 85% 30.16 in 10.0 mi Calm Calm - N/A   Clear
6:35 AM 60.8 °F - 56.3 °F 85% 30.16 in 10.0 mi Calm Calm - N/A   Clear
6:55 AM 61.9 °F - 57.0 °F 84% 30.16 in 10.0 mi Calm Calm - N/A   Clear
7:15 AM 63.9 °F - 58.1 °F 81% 30.17 in 10.0 mi Calm Calm - N/A   Clear
7:35 AM 66.0 °F - 59.0 °F 78% 30.17 in 10.0 mi Calm Calm - N/A   Clear
7:55 AM 67.5 °F - 59.9 °F 77% 30.17 in 10.0 mi Calm Calm - N/A   Clear
8:15 AM 68.9 °F - 60.8 °F 75% 30.17 in 10.0 mi Calm Calm - N/A   Clear
8:35 AM 69.8 °F - 61.3 °F 74% 30.17 in 10.0 mi SSW 5.8 mph - N/A   Clear
8:55 AM 72.5 °F - 62.4 °F 71% 30.16 in 10.0 mi SSW 6.9 mph - N/A   Clear
9:15 AM 72.3 °F - 62.4 °F 71% 30.16 in 10.0 mi SSW 9.2 mph - N/A   Clear
9:35 AM 73.4 °F - 63.3 °F 71% 30.16 in 10.0 mi SW 9.2 mph - N/A   Clear
9:55 AM 75.2 °F - 63.0 °F 66% 30.16 in 10.0 mi SSW 3.5 mph - N/A   Clear
10:15 AM 77.2 °F - 62.8 °F 61% 30.15 in 10.0 mi South 6.9 mph - N/A   Clear
10:35 AM 77.9 °F - 62.6 °F 59% 30.14 in 10.0 mi SSW 4.6 mph - N/A   Clear
10:55 AM 77.9 °F - 62.6 °F 59% 30.14 in 10.0 mi South 6.9 mph - N/A   Clear
11:15 AM 78.8 °F - 59.4 °F 51% 30.14 in 10.0 mi South 11.5 mph - N/A   Clear
11:35 AM 81.0 °F 81.3 °F 59.2 °F 47% 30.14 in 10.0 mi SSW 12.7 mph 17.3 mph N/A   Clear
11:55 AM 81.3 °F 81.4 °F 58.3 °F 45% 30.13 in 10.0 mi South 9.2 mph 17.3 mph N/A   Clear
12:15 PM 81.3 °F 81.4 °F 58.3 °F 45% 30.13 in 10.0 mi South 9.2 mph - N/A   Clear
12:55 PM 82.4 °F 82.3 °F 58.5 °F 44% 30.11 in 10.0 mi South 10.4 mph 16.1 mph N/A   Clear
1:15 PM 83.7 °F 83.3 °F 58.1 °F 42% 30.10 in 10.0 mi SSW 6.9 mph - N/A   Clear
1:35 PM 84.2 °F 83.7 °F 58.5 °F 41% 30.09 in 10.0 mi South 12.7 mph 18.4 mph N/A   Clear
1:55 PM 85.1 °F 84.3 °F 57.6 °F 39% 30.09 in 10.0 mi South 10.4 mph 18.4 mph N/A   Clear
2:15 PM 82.2 °F 82.1 °F 58.5 °F 44% 30.08 in 10.0 mi South 9.2 mph - N/A   Clear
2:35 PM 82.4 °F 82.3 °F 58.5 °F 44% 30.07 in 10.0 mi Calm Calm - N/A   Clear
2:55 PM 82.0 °F 82.1 °F 58.6 °F 45% 30.07 in 10.0 mi South 11.5 mph 17.3 mph N/A   Clear
3:15 PM 83.1 °F 82.7 °F 57.9 °F 42% 30.06 in 10.0 mi South 10.4 mph 17.3 mph N/A   Clear
3:35 PM 82.2 °F 82.1 °F 58.1 °F 44% 30.05 in 10.0 mi South 8.1 mph - N/A   Clear
3:55 PM 82.0 °F 82.1 °F 58.5 °F 45% 30.04 in 10.0 mi South 9.2 mph - N/A   Clear
4:35 PM 80.8 °F 81.2 °F 58.6 °F 47% 30.03 in 10.0 mi South 8.1 mph - N/A   Clear
4:55 PM 79.7 °F - 57.7 °F 47% 30.03 in 10.0 mi South 5.8 mph - N/A   Clear
5:15 PM 78.8 °F - 58.3 °F 49% 30.02 in 10.0 mi South 4.6 mph - N/A   Clear
5:35 PM 78.1 °F - 59.0 °F 52% 30.02 in 10.0 mi Calm Calm - N/A   Clear
5:55 PM 77.9 °F - 59.5 °F 53% 30.01 in 10.0 mi Calm Calm - N/A   Clear
6:15 PM 77.5 °F - 61.0 °F 57% 30.00 in 10.0 mi Calm Calm - N/A   Clear
6:35 PM 77.0 °F - 61.9 °F 59% 30.00 in 10.0 mi Calm Calm - N/A   Clear
6:55 PM 76.3 °F - 61.7 °F 60% 30.00 in 10.0 mi Calm Calm - N/A   Clear
7:15 PM 76.3 °F - 61.0 °F 59% 30.00 in 10.0 mi Calm Calm - N/A   Clear
7:35 PM 75.7 °F - 61.5 °F 61% 30.00 in 10.0 mi Calm Calm - N/A   Clear
7:55 PM 75.2 °F - 61.7 °F 63% 30.00 in 10.0 mi Calm Calm - N/A   Mostly Cloudy
8:15 PM 74.7 °F - 61.7 °F 64% 29.99 in 10.0 mi Calm Calm - N/A   Overcast
8:35 PM 74.3 °F - 62.4 °F 66% 29.99 in 10.0 mi Calm Calm - N/A Rain Light Rain
8:55 PM 72.1 °F - 63.7 °F 75% 30.00 in 10.0 mi Calm Calm - N/A Rain Light Rain
9:15 PM 72.3 °F - 63.7 °F 74% 30.01 in 10.0 mi Calm Calm - N/A   Overcast
9:35 PM 70.7 °F - 65.1 °F 82% 30.02 in 10.0 mi Calm Calm - N/A   Overcast
9:55 PM 70.0 °F - 64.9 °F 84% 30.02 in 10.0 mi Calm Calm - N/A   Overcast
10:15 PM 69.8 °F - 64.8 °F 84% 30.03 in 10.0 mi Calm Calm - N/A   Overcast
10:35 PM 70.0 °F - 63.9 °F 81% 30.04 in 10.0 mi Calm Calm - N/A Rain Light Rain
10:55 PM 70.5 °F - 63.3 °F 78% 30.02 in 10.0 mi Calm Calm - N/A Rain Light Rain
11:15 PM 68.9 °F - 64.0 °F 84% 30.03 in 10.0 mi Calm Calm - 0.01 in Rain Rain
11:35 PM 67.6 °F - 64.4 °F 89% 30.01 in 7.0 mi Calm Calm - 0.02 in Rain Light Rain
11:55 PM 67.3 °F - 64.6 °F 91% 30.02 in 7.0 mi Calm Calm - 0.02 in   Mostly Cloudy